STARLINK-34058 (63818 NORAD) Tracking and Keplerian Element Data

This shows tracking and keplerian element data for the satellite.

Feedback or suggestion? Click here.




ElementValue
Catalog63818
NameSTARLINK-34058
Epoch Orbit3648
Epoch Day354.01657635
Epoch Year2025
RAAN262.1612
Inclination42.9994
Eccentricity0.0001841
Argument of Perigee265.678
Mean Anonmoly94.3861
Mean Motion15.27584518
Decay Rate0.00013019
L11 63818U 25092Q 25354.01657635 .00013019 00000+0 48171-3 0 9993
L22 63818 42.9994 262.1612 0001841 265.6780 94.3861 15.27584518 36481



Live tracking and technical data element details for STARLINK-34058 (NORAD 63818). STARLINK-34058 can be tracked NOW for your location showing map with azimuth and elevation plus other details from your city location.







IsCatalogInMostPopularTable: catalog: 63818, numindb: 2
Update: records affected: 1



GetName: 63818 STARLINK-34058

Hit Count: updated at: Tue, 10 Feb 2026 01:56:11 GMT